Weather in Dinan

France     48°27′16″N   2°02′54″W
temp.,
°C
wind,
m/s
gust,
m/s
humid.,
%
clouds,
%
prec.,
mm/h
press.,
hPa
HPBL,
m
27 june, mon
mon2723:00+12sw35725 0.0 101679
02:00+9sw35912 0.0 101666
05:00+9wsw349499 0.0 101667
08:00+12sw36800 0.0 1017219
11:00+18sw565027 0.0 10181522
14:00+18wsw566194 0.5 10191236
17:00+16nnw3573100 0.3 1020330
20:00+16nnw3466100 0.3 1021452
28 june, tue
tue2823:00+13nnw1180100 0.0 102217
02:00+13sse117933 0.0 102219
05:00+9sw22934 0.0 102130
08:00+12s35823 0.0 1021156
11:00+18ssw56520 0.0 10201377
14:00+22ssw77362 0.0 10181884
17:00+23ssw7835100 0.0 10161919
20:00+19ssw674852 0.0 10161284
29 june, wed
wed2923:00+13ssw410759 0.0 1016246
02:00+11s41096100 0.0 1015224
05:00+14s51192100 0.4 1014491
08:00+14sw369144 2.2 1014343
11:00+18sw5658100 0.0 10141246
14:00+22sw6741100 0.0 10122324
17:00+20sw7846100 0.0 10121807
20:00+17wsw696518 0.4 1011556
30 june, thu
thu3023:00+12wsw389398 1.8 1012162
02:00+10sw379495 1.8 1012132
05:00+9sw349625 0.0 101276
08:00+11wsw35905 0.0 1013179
11:00+16w455942 0.1 10131326
14:00+20w4736100 0.6 10132668
17:00+17nw5655100 0.1 1015823
20:00+16nw46635 0.2 1016691
1 july, fri
fri123:00+11nw34884 0.1 101858
02:00+9wsw33920 0.1 101945
05:00+8sw23920 0.0 101932
08:00+11sw23831 0.0 1020115
11:00+17wsw33505 0.0 10211118
14:00+21w243816 0.0 10212071
17:00+21n644715 0.0 10211187
20:00+17nnw566294 0.0 1022501